Hourly Weather Dzialoszyn

Today, 6 May, Thursday

Time Temperature Precipitation Wind Pressure Humidity
00:00 0°C° 0 mm 4 mps 729 mmHg 91%
01:00 0°C° 0 mm 4 mps 729 mmHg 91%
02:00 -1°C° 0 mm 4 mps 729 mmHg 92%
03:00 0°C° 0 mm 3 mps 729 mmHg 93%
04:00 -1°C° 0 mm 3 mps 729 mmHg 93%
05:00 0°C° 0 mm 3 mps 730 mmHg 90%
06:00 +1°C° 0 mm 4 mps 730 mmHg 87%
07:00 +3°C° 0 mm 4 mps 730 mmHg 83%
08:00 +3°C° 0 mm 5 mps 730 mmHg 77%
09:00 +6°C° 0 mm 5 mps 729 mmHg 71%
10:00 +7°C° 0 mm 6 mps 729 mmHg 64%
11:00 +8°C° 0.2 mm 6 mps 729 mmHg 64%
12:00 +9°C° 0.2 mm 6 mps 728 mmHg 63%
13:00 +9°C° 0.2 mm 6 mps 728 mmHg 62%
14:00 +9°C° 0.3 mm 6 mps 727 mmHg 65%
15:00 +9°C° 0.3 mm 6 mps 727 mmHg 69%
16:00 +9°C° 0.3 mm 5 mps 726 mmHg 72%
17:00 +8°C° 0.3 mm 5 mps 726 mmHg 78%
18:00 +7°C° 0.3 mm 5 mps 726 mmHg 84%
19:00 +6°C° 0.3 mm 5 mps 727 mmHg 90%
20:00 +6°C° 0.4 mm 5 mps 727 mmHg 91%
21:00 +5°C° 0.4 mm 5 mps 727 mmHg 93%
22:00 +5°C° 0.4 mm 4 mps 727 mmHg 94%
23:00 +5°C° 0.2 mm 4 mps 727 mmHg 94%

Tomorrow, 7 May, Friday

Time Temperature Precipitation Wind Pressure Humidity
00:00 +5°C° 0.2 mm 3 mps 727 mmHg 94%
01:00 +6°C° 0.2 mm 2 mps 727 mmHg 95%
02:00 +5°C° 0.1 mm 2 mps 727 mmHg 95%
03:00 +5°C° 0.1 mm 2 mps 727 mmHg 96%
04:00 +5°C° 0.1 mm 2 mps 727 mmHg 97%
05:00 +5°C° 0.3 mm 2 mps 728 mmHg 96%
06:00 +4°C° 0.3 mm 2 mps 728 mmHg 96%
07:00 +4°C° 0.3 mm 2 mps 729 mmHg 95%
08:00 +5°C° 0.1 mm 2 mps 730 mmHg 91%
09:00 +5°C° 0.1 mm 2 mps 730 mmHg 87%
10:00 +6°C° 0.1 mm 2 mps 731 mmHg 83%
11:00 +5°C° 0.2 mm 3 mps 731 mmHg 83%
12:00 +5°C° 0.2 mm 4 mps 732 mmHg 82%
13:00 +6°C° 0.2 mm 4 mps 732 mmHg 81%
14:00 +7°C° 0 mm 4 mps 732 mmHg 72%
15:00 +7°C° 0 mm 4 mps 733 mmHg 63%
16:00 +8°C° 0 mm 4 mps 733 mmHg 53%
17:00 +8°C° 0 mm 3 mps 733 mmHg 59%
18:00 +7°C° 0 mm 2 mps 733 mmHg 64%
19:00 +7°C° 0 mm 1 mps 732 mmHg 70%
20:00 +6°C° 0 mm 2 mps 732 mmHg 71%
21:00 +5°C° 0 mm 2 mps 732 mmHg 72%
22:00 +4°C° 0 mm 2 mps 732 mmHg 73%
23:00 +5°C° 0 mm 2 mps 732 mmHg 74%

Day after tomorrow, 8 May, Saturday

Time Temperature Precipitation Wind Pressure Humidity
00:00 +4°C° 0 mm 3 mps 731 mmHg 76%
01:00 +5°C° 0 mm 3 mps 731 mmHg 77%
02:00 +5°C° 0.2 mm 3 mps 731 mmHg 82%
03:00 +6°C° 0.2 mm 2 mps 730 mmHg 86%
04:00 +6°C° 0.2 mm 2 mps 730 mmHg 90%
05:00 +5°C° 0.4 mm 3 mps 729 mmHg 92%
06:00 +5°C° 0.4 mm 4 mps 728 mmHg 93%
07:00 +6°C° 0.4 mm 5 mps 728 mmHg 94%
08:00 +7°C° 0.1 mm 5 mps 728 mmHg 93%
09:00 +9°C° 0.1 mm 5 mps 727 mmHg 91%
10:00 +10°C° 0.1 mm 5 mps 727 mmHg 90%
11:00 +12°C° 0.1 mm 5 mps 727 mmHg 89%
12:00 +13°C° 0.1 mm 5 mps 727 mmHg 88%
13:00 +14°C° 0.1 mm 5 mps 726 mmHg 87%
14:00 +14°C° 0.2 mm 5 mps 726 mmHg 85%
15:00 +15°C° 0.2 mm 5 mps 726 mmHg 84%
16:00 +16°C° 0.2 mm 6 mps 726 mmHg 82%
17:00 +16°C° 0.1 mm 5 mps 725 mmHg 83%
18:00 +15°C° 0.1 mm 5 mps 725 mmHg 84%
19:00 +15°C° 0.1 mm 4 mps 724 mmHg 86%
20:00 +15°C° 0.1 mm 4 mps 724 mmHg 87%
21:00 +14°C° 0.1 mm 4 mps 724 mmHg 89%
22:00 +14°C° 0.1 mm 3 mps 724 mmHg 90%
23:00 +13°C° 0.2 mm 3 mps 724 mmHg 92%

9 May, Sunday

Time Temperature Precipitation Wind Pressure Humidity
00:00 +13°C° 0.2 mm 3 mps 725 mmHg 94%
01:00 +13°C° 0.2 mm 2 mps 725 mmHg 95%

10 May, Monday

Time Temperature Precipitation Wind Pressure Humidity

11 May, Tuesday

Time Temperature Precipitation Wind Pressure Humidity
Show more

We Need Your Consent

Meteoprog and our Service Providers may store and access personal data such as cookies, device identifiers or other similar technologies on your device and process such data to personalise content and ads, as well as provide social media features and to analyse the traffic.

  • Store and/or access information on your device

    Cookies, device identifiers or other information can be stored or accessed on your device for the purposes indicated above.

  • Personalised ads and content, ad and content measurement, audience insights, and products development

    Ads and content can be personalised based on a profile. More data can be added to better personalise ads and content. Ad and content performance can be measured. Insights about the audience who saw the ads and content can be derived. Such data can be used to develop or improve user’s experience, systems and software.

By clicking ‘I Agree’ you will allow the use of indicated cookies, device identifiers, web beacons or other similar technologies. Your settings can be changed in the browser on your device.

For certain purposes, legitimate interests may be relied on, rather than consent. You can read more about this in our Privacy and Cookie Policy.